Location: Oberkirch
(48.5323°N, 8.0787°E)
Time: 02:00:52
(UTC+00:00)

Cosmos 1908 Rocket - Pass Details

Date: 08 November 2025
Orbit: 599 x 625 km, 82.5° (Epoch: 13 December)

Event Time Altitude Azimuth Distance (km) Brightness Sun altitude
Rises 04:09:48 0° 351° (N) 2,923 6.9 -22.5°
Reaches altitude 10° 04:12:03 10° 352° (N) 2,010 6.1 -22.2°
Maximum altitude 04:16:31 81° 80° (E) 639 3.6 -21.4°
Drops below altitude 10° 04:20:55 10° 168° (SSE) 1,984 6.3 -20.7°
Sets 04:23:08 0° 169° (S) 2,881 7.2 -20.3°
